LEMUR-2-MARHISYAM (60536 NORAD) Tracking and Keplerian Element Data

This shows tracking and keplerian element data for the satellite.

Feedback or suggestion? Click here.




ElementValue
Catalog60536
NameLEMUR-2-MARHISYAM
Epoch Orbit848
Epoch Day286.75616581
Epoch Year2024
RAAN1.2623
Inclination97.7374
Eccentricity8.79E-05
Argument of Perigee224.3341
Mean Anonmoly135.7809
Mean Motion14.93582843
Decay Rate0.00018706
L11 60536U 24149BW 24286.75616581 .00018706 00000+0 17749-2 0 9992
L22 60536 97.7374 1.2623 0000879 224.3341 135.7809 14.93582843 8486



Live tracking and technical data element details for LEMUR-2-MARHISYAM (NORAD 60536). LEMUR-2-MARHISYAM can be tracked NOW for your location showing map with azimuth and elevation plus other details from your city location.







IsCatalogInMostPopularTable: catalog: 60536, numindb: 5
Update: records affected: 1



GetName: 60536 LEMUR-2-MARHISYAM

Hit Count: updated at: Wed, 04 Dec 2024 19:48:48 GMT